Flag for United Kingdom Weather past 2 weeks in Guildford, England, United Kingdom

54 °F

Broken clouds.

Feels Like: 49 °F
Forecast: 46 / 55 °F
Wind: 14 mph from Southwest

Location: Farnborough Airport

Current Time: Nov 30, 2015 at 10:58:40 AM

Latest Report: Nov 30, 2015 at 10:20 AM

Visibility: N/A

Pressure: 30.01 "Hg

Humidity: 82%

Dew point: 48 °F

Location of GuildfordLocation

Historic Weather in Guildford — Graph


Guildford temperature yesterday

Maximum temperature yesterday: 55 °F (at 1:20 PM)
Minimum temperature yesterday: 50 °F (at 7:50 AM)
Average temperature yesterday: 53 °F

Past Weeks' High & Low Weather Summary

High61 °F (Nov 17, 3:20 PM)100% (Nov 15, 5:50 PM)30.30 "Hg (Nov 15, 5:50 PM)
Low27 °F (Nov 22, 7:50 AM)56% (Nov 21, 7:20 PM)29.53 "Hg (Nov 17, 2:20 PM)
Average49 °F88%29.89 "Hg
* Reported Nov 15 9:20 AM — Nov 30 9:20 AM, Guildford, Weather by CustomWeather, © 2015

Note: Actual official high and low records may vary slightly from our data, if they occured in-between our weather recording intervals... More about our weather records


Guildford weather history for previous 24 hours

Time TempWeatherWind HumidityBarometerVisibility
9:20 AM
Mon, Nov 30
54 °FBroken clouds.22 mph82%30.01 "HgN/A
8:50 AM54 °FBroken clouds.23 mph88%30.01 "HgN/A
8:20 AM52 °FScattered showers. Partly sunny.22 mph94%30.01 "HgN/A
7:20 AM52 °FPassing clouds.18 mph94%30.01 "HgN/A
6:50 AM52 °FLight rain. Passing clouds.12 mph94%30.01 "HgN/A
7:20 PM
Sun, Nov 29
54 °FLight rain. Partly cloudy.23 mph88%29.89 "HgN/A
6:50 PM54 °FLight rain. Partly cloudy.23 mph88%29.86 "HgN/A
6:20 PM54 °FLight rain. Passing clouds.30 mph88%29.83 "HgN/A
5:50 PM54 °FLight rain. Partly cloudy.26 mph82%29.83 "HgN/A
5:20 PM54 °FLight rain. Partly cloudy.28 mph82%29.80 "HgN/A
4:50 PM54 °FLight rain. Partly cloudy.25 mph82%29.80 "HgN/A
4:20 PM55 °FPassing clouds.30 mph77%29.80 "HgN/A
3:50 PM54 °FScattered clouds.28 mph82%29.80 "HgN/A
3:20 PM55 °FPartly sunny.25 mph77%29.77 "HgN/A
2:50 PM55 °FPartly sunny.32 mph77%29.77 "HgN/A
2:20 PM55 °FPartly sunny.28 mph77%29.77 "HgN/A
1:50 PM54 °FPartly sunny.26 mph77%29.77 "HgN/A
1:20 PM55 °FPartly sunny.26 mph77%29.77 "HgN/A
12:50 PM54 °FPartly sunny.30 mph77%29.77 "HgN/A
12:20 PM54 °FPartly sunny.29 mph77%29.77 "HgN/A
11:50 AM52 °FLight rain. Broken clouds.26 mph88%29.77 "HgN/A
11:20 AM54 °FPartly sunny.23 mph77%29.77 "HgN/A
10:50 AM52 °FPartly sunny.25 mph77%29.80 "HgN/A
10:20 AM52 °FScattered clouds.25 mph77%29.80 "HgN/A
Weather by CustomWeather, © 2015

See weather overviewHow to use our weather pages